AB776 CYSN-CYGK

Flight info

Callsign AB776
Flight time 0h 44m
Altitude 21000
Route ILIXU
Aircraft PC12/L-SDFGRWY/S

Departure

Time 2026-04-27 00:29
Airport Niagara District Airport (CYSN)

Arrival

Time 2026-04-27 01:13
Airport Kingston Norman Rogers Airport (CYGK)
Time Latitude Longitude Altitude Speed Heading
2026-04-27 00:13 43.18957 -79.17125 321 ft 0 kts 40°
2026-04-27 00:25 43.18965 -79.17122 323 ft 4 kts 343°
2026-04-27 00:25 43.18984 -79.17193 327 ft 11 kts 251°
2026-04-27 00:26 43.18927 -79.17274 324 ft 12 kts 224°
2026-04-27 00:26 43.18859 -79.17357 323 ft 14 kts 220°
2026-04-27 00:26 43.18846 -79.17373 325 ft 2 kts 221°
2026-04-27 00:26 43.18811 -79.17415 324 ft 10 kts 222°
2026-04-27 00:27 43.18756 -79.17484 324 ft 12 kts 222°
2026-04-27 00:27 43.18709 -79.17576 325 ft 11 kts 268°
2026-04-27 00:27 43.18706 -79.17685 325 ft 12 kts 268°
2026-04-27 00:27 43.18704 -79.17787 327 ft 4 kts 274°
2026-04-27 00:28 43.18707 -79.17804 328 ft 5 kts 296°
2026-04-27 00:28 43.18787 -79.17823 326 ft 15 kts 357°
2026-04-27 00:28 43.18874 -79.17719 325 ft 22 kts 52°
2026-04-27 00:28 43.19083 -79.17346 325 ft 79 kts 53°
2026-04-27 00:29 43.19449 -79.16669 562 ft 96 kts 56°
2026-04-27 00:29 43.19826 -79.15872 949 ft 103 kts 57°
2026-04-27 00:29 43.20261 -79.15023 1399 ft 116 kts 56°
2026-04-27 00:29 43.21041 -79.14389 1757 ft 147 kts 20°
2026-04-27 00:30 43.22084 -79.14018 2372 ft 161 kts 22°
2026-04-27 00:30 43.23132 -79.13519 3121 ft 158 kts 25°
2026-04-27 00:30 43.24155 -79.12973 3813 ft 156 kts 25°
2026-04-27 00:30 43.25195 -79.12474 4418 ft 159 kts 23°
2026-04-27 00:31 43.26243 -79.11965 5074 ft 160 kts 24°
2026-04-27 00:31 43.27291 -79.11434 5676 ft 161 kts 24°
2026-04-27 00:31 43.28368 -79.10883 6177 ft 168 kts 23°
2026-04-27 00:31 43.29441 -79.10334 6855 ft 162 kts 22°
2026-04-27 00:32 43.30506 -79.09789 7409 ft 165 kts 22°
2026-04-27 00:32 43.31586 -79.09235 7947 ft 166 kts 21°
2026-04-27 00:32 43.32673 -79.08678 8496 ft 167 kts 20°
2026-04-27 00:32 43.33768 -79.08116 9048 ft 168 kts 19°
2026-04-27 00:33 43.34869 -79.07553 9599 ft 169 kts 18°
2026-04-27 00:33 43.35975 -79.06989 10137 ft 170 kts 18°
2026-04-27 00:33 43.37090 -79.06416 10636 ft 172 kts 18°
2026-04-27 00:33 43.38212 -79.05838 11140 ft 173 kts 17°
2026-04-27 00:34 43.39345 -79.05256 11630 ft 175 kts 17°
2026-04-27 00:34 43.40489 -79.04668 12140 ft 176 kts 17°
2026-04-27 00:34 43.41644 -79.04074 12639 ft 178 kts 17°
2026-04-27 00:34 43.42809 -79.03475 13146 ft 180 kts 17°
2026-04-27 00:35 43.43986 -79.02869 13647 ft 182 kts 16°
2026-04-27 00:35 43.45176 -79.02256 14133 ft 183 kts 16°
2026-04-27 00:35 43.46376 -79.01638 14579 ft 185 kts 16°
2026-04-27 00:35 43.47581 -79.01017 15022 ft 185 kts 15°
2026-04-27 00:36 43.48790 -79.00393 15472 ft 186 kts 15°
2026-04-27 00:36 43.50011 -78.99764 15937 ft 187 kts 15°
2026-04-27 00:36 43.51159 -78.99172 16374 ft 188 kts 14°
2026-04-27 00:36 43.52393 -78.98535 16837 ft 190 kts 14°
2026-04-27 00:37 43.53633 -78.97895 17299 ft 191 kts 14°
2026-04-27 00:37 43.54864 -78.97259 17750 ft 192 kts 14°
2026-04-27 00:37 43.56039 -78.96247 18167 ft 202 kts 31°
2026-04-27 00:37 43.57116 -78.94991 18611 ft 204 kts 33°
2026-04-27 00:38 43.58187 -78.93708 18996 ft 205 kts 33°
2026-04-27 00:38 43.59150 -78.92207 19328 ft 213 kts 45°
2026-04-27 00:38 43.60011 -78.90530 19729 ft 215 kts 47°
2026-04-27 00:38 43.60869 -78.88835 20103 ft 216 kts 47°
2026-04-27 00:39 43.61744 -78.87142 20473 ft 217 kts 46°
2026-04-27 00:39 43.62615 -78.85464 20839 ft 219 kts 46°
2026-04-27 00:39 43.63502 -78.83751 21207 ft 221 kts 46°
2026-04-27 00:39 43.64429 -78.81969 21245 ft 237 kts 47°
2026-04-27 00:40 43.65411 -78.80069 21253 ft 249 kts 47°
2026-04-27 00:40 43.66421 -78.78098 21255 ft 253 kts 48°
2026-04-27 00:40 43.67441 -78.76112 21256 ft 255 kts 48°
2026-04-27 00:40 43.68473 -78.74112 21255 ft 257 kts 48°
2026-04-27 00:41 43.69520 -78.72086 21254 ft 261 kts 48°
2026-04-27 00:41 43.70580 -78.70027 21255 ft 264 kts 48°
2026-04-27 00:41 43.71647 -78.67950 21254 ft 266 kts 48°
2026-04-27 00:41 43.72720 -78.65860 21253 ft 267 kts 48°
2026-04-27 00:42 43.73798 -78.63763 21254 ft 268 kts 48°
2026-04-27 00:42 43.74877 -78.61661 21256 ft 268 kts 48°
2026-04-27 00:42 43.75957 -78.59555 21257 ft 268 kts 48°
2026-04-27 00:42 43.77037 -78.57448 21255 ft 268 kts 48°
2026-04-27 00:43 43.78117 -78.55340 21256 ft 268 kts 48°
2026-04-27 00:43 43.79196 -78.53232 21255 ft 268 kts 48°
2026-04-27 00:43 43.80275 -78.51122 21255 ft 268 kts 49°
2026-04-27 00:43 43.81352 -78.49016 21251 ft 268 kts 49°
2026-04-27 00:44 43.82426 -78.46913 21255 ft 268 kts 49°
2026-04-27 00:44 43.83501 -78.44807 21255 ft 268 kts 49°
2026-04-27 00:44 43.84575 -78.42701 21254 ft 267 kts 49°
2026-04-27 00:44 43.85648 -78.40597 21256 ft 267 kts 49°
2026-04-27 00:45 43.86720 -78.38493 21255 ft 267 kts 49°
2026-04-27 00:45 43.87790 -78.36390 21254 ft 267 kts 49°
2026-04-27 00:45 43.88859 -78.34288 21257 ft 267 kts 49°
2026-04-27 00:45 43.89927 -78.32187 21254 ft 266 kts 49°
2026-04-27 00:46 43.90994 -78.30086 21254 ft 266 kts 49°
2026-04-27 00:46 43.92059 -78.27987 21255 ft 266 kts 49°
2026-04-27 00:46 43.93123 -78.25889 21254 ft 266 kts 49°
2026-04-27 00:46 43.94186 -78.23791 21254 ft 266 kts 49°
2026-04-27 00:47 43.95248 -78.21695 21246 ft 265 kts 49°
2026-04-27 00:47 43.96307 -78.19603 21254 ft 265 kts 49°
2026-04-27 00:47 43.97368 -78.17505 21245 ft 265 kts 49°
2026-04-27 00:47 43.98428 -78.15407 21250 ft 265 kts 49°
2026-04-27 00:48 43.99474 -78.13335 21248 ft 266 kts 49°
2026-04-27 00:48 44.00534 -78.11234 21247 ft 265 kts 49°
2026-04-27 00:48 44.01593 -78.09135 21248 ft 265 kts 49°
2026-04-27 00:48 44.02656 -78.07027 21066 ft 271 kts 49°
2026-04-27 00:49 44.03762 -78.04839 20694 ft 281 kts 49°
2026-04-27 00:49 44.04891 -78.02591 20325 ft 286 kts 49°
2026-04-27 00:49 44.05664 -78.01048 20079 ft 289 kts 50°
2026-04-27 00:49 44.07170 -77.98039 19594 ft 282 kts 50°
2026-04-27 00:50 44.08281 -77.95821 19236 ft 278 kts 49°
2026-04-27 00:50 44.10306 -77.91795 18589 ft 278 kts 49°
2026-04-27 00:50 44.11413 -77.89593 18203 ft 284 kts 49°
2026-04-27 00:51 44.12550 -77.87320 17801 ft 288 kts 50°
2026-04-27 00:51 44.13695 -77.85025 17403 ft 289 kts 50°
2026-04-27 00:51 44.14844 -77.82722 17011 ft 290 kts 50°
2026-04-27 00:51 44.15991 -77.80426 16651 ft 287 kts 50°
2026-04-27 00:52 44.17121 -77.78159 16371 ft 283 kts 50°
2026-04-27 00:52 44.18234 -77.75925 16084 ft 279 kts 50°
2026-04-27 00:52 44.19334 -77.73719 15812 ft 275 kts 50°
2026-04-27 00:52 44.20421 -77.71536 15540 ft 273 kts 50°
2026-04-27 00:53 44.21498 -77.69371 15271 ft 272 kts 50°
2026-04-27 00:53 44.22572 -77.67210 15003 ft 271 kts 50°
2026-04-27 00:53 44.23643 -77.65054 14739 ft 270 kts 50°
2026-04-27 00:53 44.24711 -77.62904 14467 ft 269 kts 50°
2026-04-27 00:54 44.25776 -77.60756 14182 ft 269 kts 50°
2026-04-27 00:54 44.26840 -77.58609 13878 ft 269 kts 50°
2026-04-27 00:54 44.27900 -77.56468 13561 ft 268 kts 51°
2026-04-27 00:54 44.28882 -77.54279 13236 ft 268 kts 60°
2026-04-27 00:55 44.29563 -77.51852 12928 ft 269 kts 65°
2026-04-27 00:55 44.30200 -77.49393 12617 ft 269 kts 65°
2026-04-27 00:55 44.30845 -77.46950 12309 ft 267 kts 65°
2026-04-27 00:55 44.31500 -77.44529 12011 ft 266 kts 65°
2026-04-27 00:56 44.32141 -77.42118 11709 ft 264 kts 68°
2026-04-27 00:56 44.32317 -77.39551 11396 ft 271 kts 91°
2026-04-27 00:56 44.32039 -77.36949 11107 ft 271 kts 95°
2026-04-27 00:56 44.31717 -77.34390 10819 ft 271 kts 96°
2026-04-27 00:57 44.31400 -77.31805 10528 ft 269 kts 95°
2026-04-27 00:57 44.31099 -77.29229 10245 ft 268 kts 95°
2026-04-27 00:57 44.30799 -77.26664 9938 ft 267 kts 95°
2026-04-27 00:57 44.30496 -77.24116 9624 ft 266 kts 95°
2026-04-27 00:58 44.30191 -77.21572 9307 ft 265 kts 95°
2026-04-27 00:58 44.29889 -77.19040 8995 ft 264 kts 95°
2026-04-27 00:58 44.29588 -77.16519 8681 ft 263 kts 95°
2026-04-27 00:58 44.29287 -77.14010 8382 ft 262 kts 95°
2026-04-27 00:59 44.28990 -77.11546 8076 ft 252 kts 95°
2026-04-27 00:59 44.29129 -77.09210 7769 ft 238 kts 71°
2026-04-27 00:59 44.29634 -77.07031 7471 ft 235 kts 68°
2026-04-27 00:59 44.30152 -77.04866 7176 ft 235 kts 69°
2026-04-27 01:00 44.30629 -77.02690 6876 ft 234 kts 70°
2026-04-27 01:00 44.31087 -77.00513 6588 ft 233 kts 71°
2026-04-27 01:00 44.31547 -76.98346 6273 ft 233 kts 71°
2026-04-27 01:00 44.32010 -76.96181 5962 ft 232 kts 71°
2026-04-27 01:01 44.32471 -76.94028 5695 ft 231 kts 71°
2026-04-27 01:01 44.32926 -76.91892 5465 ft 229 kts 71°
2026-04-27 01:01 44.33376 -76.89776 5235 ft 226 kts 71°
2026-04-27 01:01 44.33821 -76.87684 5000 ft 224 kts 71°
2026-04-27 01:02 44.34263 -76.85605 4763 ft 223 kts 72°
2026-04-27 01:02 44.34703 -76.83533 4531 ft 222 kts 72°
2026-04-27 01:02 44.35142 -76.81463 4298 ft 222 kts 72°
2026-04-27 01:02 44.35580 -76.79394 4075 ft 223 kts 72°
2026-04-27 01:03 44.36024 -76.77302 3852 ft 226 kts 72°
2026-04-27 01:03 44.36472 -76.75186 3644 ft 228 kts 73°
2026-04-27 01:03 44.36921 -76.73060 3450 ft 228 kts 73°
2026-04-27 01:03 44.37370 -76.70929 3241 ft 229 kts 73°
2026-04-27 01:04 44.37819 -76.68797 3034 ft 229 kts 73°
2026-04-27 01:04 44.38268 -76.66666 2830 ft 229 kts 73°
2026-04-27 01:04 44.38717 -76.64530 2625 ft 229 kts 73°
2026-04-27 01:04 44.39096 -76.62729 2456 ft 229 kts 73°
2026-04-27 01:05 44.39539 -76.60616 2256 ft 230 kts 73°
2026-04-27 01:05 44.39971 -76.58548 2047 ft 208 kts 73°
2026-04-27 01:05 44.40357 -76.56698 2008 ft 192 kts 73°
2026-04-27 01:05 44.40735 -76.54903 2009 ft 198 kts 73°
2026-04-27 01:06 44.41133 -76.53009 2014 ft 204 kts 74°
2026-04-27 01:06 44.41495 -76.51098 2010 ft 202 kts 81°
2026-04-27 01:06 44.41315 -76.49168 2008 ft 203 kts 111°
2026-04-27 01:06 44.40476 -76.47589 2000 ft 204 kts 139°
2026-04-27 01:07 44.39341 -76.46399 2002 ft 205 kts 143°
2026-04-27 01:07 44.38183 -76.45230 2005 ft 206 kts 142°
2026-04-27 01:07 44.37026 -76.44043 1960 ft 206 kts 142°
2026-04-27 01:07 44.35878 -76.42857 1908 ft 204 kts 142°
2026-04-27 01:08 44.34725 -76.41713 1856 ft 202 kts 148°
2026-04-27 01:08 44.33392 -76.41237 1793 ft 197 kts 178°
2026-04-27 01:08 44.32096 -76.41699 1731 ft 192 kts 207°
2026-04-27 01:08 44.31134 -76.42894 1701 ft 181 kts 232°
2026-04-27 01:09 44.30645 -76.43814 1701 ft 176 kts 233°
2026-04-27 01:09 44.29932 -76.45165 1700 ft 171 kts 233°
2026-04-27 01:09 44.29223 -76.46500 1698 ft 171 kts 233°
2026-04-27 01:09 44.28517 -76.47827 1709 ft 169 kts 233°
2026-04-27 01:10 44.27817 -76.49143 1713 ft 168 kts 233°
2026-04-27 01:10 44.26921 -76.50828 1700 ft 153 kts 233°
2026-04-27 01:10 44.26330 -76.51941 1563 ft 135 kts 233°
2026-04-27 01:10 44.25964 -76.52629 1446 ft 126 kts 233°
2026-04-27 01:11 44.25468 -76.53557 1280 ft 111 kts 233°
2026-04-27 01:11 44.25024 -76.54387 1120 ft 107 kts 234°
2026-04-27 01:11 44.24592 -76.55193 970 ft 102 kts 234°
2026-04-27 01:11 44.24180 -76.55963 791 ft 96 kts 235°
2026-04-27 01:12 44.23761 -76.56708 653 ft 99 kts 234°
2026-04-27 01:12 44.23367 -76.57469 572 ft 98 kts 236°
2026-04-27 01:12 44.22967 -76.58238 455 ft 97 kts 235°
2026-04-27 01:12 44.22590 -76.58953 322 ft 84 kts 236°
2026-04-27 01:13 44.22291 -76.59515 303 ft 57 kts 234°
2026-04-27 01:13 44.22118 -76.59841 303 ft 31 kts 234°
2026-04-27 01:13 44.22028 -76.60009 306 ft 16 kts 233°
2026-04-27 01:13 44.21962 -76.60132 301 ft 15 kts 234°
2026-04-27 01:14 44.21907 -76.60143 301 ft 10 kts 123°
2026-04-27 01:14 44.21872 -76.60041 301 ft 12 kts 109°
2026-04-27 01:14 44.21845 -76.59959 301 ft 9 kts 117°
2026-04-27 01:14 44.21844 -76.59910 301 ft 1 kts 53°